Location: Ragusa
(36.9170°N, 14.7330°E)
Time: 06:08:30
(UTC+01:00)

ISS - Visible Passes

Search period start: 20 January 2019 00:00
Search period end: 30 January 2019 00:00
Orbit: 404 x 410 km, 51.6° (Epoch: 20 January)

Date Brightness Start Highest point End Pass type
(mag) Time Alt. Az. Time Alt. Az. Time Alt. Az.
20 Jan -1.4 18:00:27 10° SE 18:01:08 10° SE 18:01:47 10° ESE visible
20 Jan -1.0 19:33:58 10° WSW 19:34:52 17° WSW 19:34:52 17° WSW visible
21 Jan -3.8 18:42:39 10° SW 18:45:53 60° SE 18:46:04 59° ESE visible
22 Jan -2.6 17:51:45 10° SSW 17:54:37 28° SE 17:57:11 12° ENE visible
22 Jan -1.3 19:28:16 10° W 19:29:55 21° WNW 19:29:55 21° WNW visible
23 Jan -3.1 18:36:28 10° WSW 18:39:39 47° NW 18:40:56 29° NNE visible
24 Jan -3.8 17:44:58 10° SW 17:48:14 85° SE 17:51:33 10° NE visible
24 Jan -1.1 19:23:12 10° WNW 19:24:36 14° NW 19:24:36 14° NW visible
25 Jan -1.8 18:30:54 10° W 18:33:32 22° NNW 18:35:27 14° NNE visible
27 Jan -1.2 18:26:00 10° NW 18:27:33 13° NNW 18:29:04 10° N visible
